Date String (YYYY-MM-DD hh:mm:ss) UTC,Instrument flags,Ambient pressure (hPa),Sample flow (lpm),Bypass flow (lpm),Sample temperature (°C),Ambient temperature (°C),ASC tube jacket temperature (°C),LED temperature (°C),Box temperature (°C),Sample RH (%),Span deviation,Mass concentration (μg/m³),Mass concentration (μg/m³),Mass concentration (μg/m³)
DateTimeUTC,F1_M11,P_M11,Q1_M11,Q2_M11,T1_M11,T2_M11,T3_M11,T4_M11,T5_M11,U1_M11,ZSPAN_M11,X0_M11,X2_M11,X1_M11
2023-01-11 03:00:00,,0816.8,4.98,0.00,22.2,20.8,00.0,31.0,23.9,13.0,0000.0,0001.64,0000.47,0000.40
2023-01-11 03:01:00,,0816.8,4.99,0.00,22.2,20.8,00.0,31.0,23.9,13.6,0000.0,0000.85,0000.46,0000.39
2023-01-11 03:02:00,,0816.8,5.01,0.00,22.1,20.8,00.0,31.0,23.8,13.9,0000.0,0000.86,0000.45,0000.38
2023-01-11 03:03:00,,0816.8,5.00,0.00,22.1,20.8,00.0,31.0,23.8,14.0,0000.0,0000.88,0000.45,0000.37
2023-01-11 03:04:00,,0816.8,5.00,0.00,22.1,20.8,00.0,31.0,23.8,14.1,0000.0,0000.96,0000.48,0000.37
2023-01-11 03:05:00,,0816.8,4.99,0.00,22.1,20.8,00.0,31.0,23.8,13.7,0000.0,0001.00,0000.50,0000.37
2023-01-11 03:06:00,,0817.1,5.00,0.00,22.1,20.8,00.0,31.0,23.8,13.7,0000.0,0000.85,0000.48,0000.36
2023-01-11 03:07:00,,0817.2,5.00,0.00,22.1,20.8,00.0,31.0,23.8,13.6,0000.0,0000.76,0000.48,0000.36
2023-01-11 03:08:00,,0816.9,4.99,0.00,22.1,20.8,00.0,31.0,23.8,13.8,0000.0,0000.81,0000.50,0000.37
2023-01-11 03:09:00,,0816.8,5.01,0.00,22.1,20.8,00.0,31.0,23.8,13.8,0000.0,0001.04,0000.53,0000.38
2023-01-11 03:10:00,,0816.8,4.99,0.00,22.1,20.8,00.0,31.0,23.8,13.4,0000.0,0001.46,0000.55,0000.39
2023-01-11 03:11:00,,0816.8,4.99,0.00,22.1,20.8,00.0,31.0,23.8,13.5,0000.0,0001.51,0000.57,0000.40
2023-01-11 03:12:00,,0816.8,4.99,0.00,22.1,20.8,00.0,31.0,23.9,13.6,0000.0,0001.55,0000.59,0000.41
2023-01-11 03:13:00,,0817.2,5.01,0.00,22.1,20.8,00.0,31.0,23.8,13.6,0000.0,0001.54,0000.60,0000.42
2023-01-11 03:14:00,,0817.2,5.00,0.00,22.1,20.8,00.0,31.0,23.8,13.3,0000.0,0001.52,0000.60,0000.43
2023-01-11 03:15:00,,0817.3,5.01,0.00,22.1,20.8,00.0,31.0,23.8,12.7,0000.0,0001.46,0000.58,0000.43
2023-01-11 03:16:00,,0817.1,5.01,0.00,22.1,20.8,00.0,31.0,23.8,13.4,0000.0,0001.36,0000.53,0000.42
2023-01-11 03:17:00,,0817.0,5.00,0.00,22.1,20.8,00.0,31.0,23.8,14.0,0000.0,0001.36,0000.52,0000.41
2023-01-11 03:18:00,,0817.1,4.99,0.00,22.1,20.8,00.0,31.0,23.8,13.9,0000.0,0001.39,0000.53,0000.41
2023-01-11 03:19:00,,0816.6,5.00,0.00,22.1,20.8,00.0,31.0,23.8,13.6,0000.0,0001.36,0000.51,0000.40
2023-01-11 03:20:00,,0816.8,5.00,0.00,22.1,20.8,00.0,31.0,23.8,13.6,0000.0,0001.13,0000.49,0000.39
2023-01-11 03:21:00,,0816.6,5.00,0.00,22.1,20.8,00.0,31.0,23.8,13.4,0000.0,0000.74,0000.48,0000.39
2023-01-11 03:22:00,,0816.7,4.98,0.00,22.1,20.8,00.0,31.0,23.9,13.3,0000.0,0000.71,0000.47,0000.39
2023-01-11 03:23:00,,0816.5,5.02,0.00,22.1,20.8,00.0,31.0,23.8,13.3,0000.0,0000.73,0000.48,0000.39
2023-01-11 03:24:00,,0816.5,5.00,0.00,22.1,20.8,00.0,31.0,23.8,13.3,0000.0,0000.72,0000.48,0000.39
2023-01-11 03:25:00,,0816.5,4.99,0.00,22.1,20.8,00.0,31.0,23.8,13.3,0000.0,0000.71,0000.47,0000.38
2023-01-11 03:26:00,,0816.5,5.00,0.00,22.1,20.8,00.0,31.0,23.8,13.2,0000.0,0000.70,0000.47,0000.38
2023-01-11 03:27:00,,0816.6,5.00,0.00,22.1,20.8,00.0,31.0,23.8,13.4,0000.0,0000.73,0000.48,0000.38
2023-01-11 03:28:00,,0816.5,4.99,0.00,22.1,20.8,00.0,31.0,23.8,13.5,0000.0,0000.75,0000.50,0000.39
2023-01-11 03:29:00,,0816.5,4.99,0.00,22.1,20.8,00.0,31.0,23.8,13.3,0000.0,0000.76,0000.50,0000.39
2023-01-11 03:30:00,,0816.5,5.00,0.00,22.1,20.8,00.0,31.0,23.8,12.9,0000.0,0000.75,0000.49,0000.39
2023-01-11 03:31:00,,0816.4,5.01,0.00,22.1,20.8,00.0,31.0,23.8,12.7,0000.0,0000.83,0000.48,0000.38
2023-01-11 03:32:00,,0816.4,5.01,0.00,22.1,20.8,00.0,31.0,23.8,12.9,0000.0,0000.95,0000.47,0000.37
2023-01-11 03:33:00,,0816.4,5.01,0.00,22.1,20.7,00.0,31.0,23.8,12.9,0000.0,0000.93,0000.46,0000.36
2023-01-11 03:34:00,,0816.4,4.98,0.00,22.0,20.7,00.0,31.0,23.7,13.8,0000.0,0000.89,0000.44,0000.35
2023-01-11 03:35:00,,0816.4,5.00,0.00,22.0,20.7,00.0,31.0,23.7,13.6,0000.0,0000.88,0000.43,0000.35
2023-01-11 03:36:00,,0816.4,4.98,0.00,22.1,20.7,00.0,31.0,23.8,13.7,0000.0,0000.91,0000.44,0000.35
2023-01-11 03:37:00,,0816.4,5.03,0.00,22.1,20.7,00.0,30.9,23.8,13.8,0000.0,0000.96,0000.46,0000.35
2023-01-11 03:38:00,,0816.4,5.00,0.00,22.0,20.6,00.0,31.0,23.8,13.0,0000.0,0000.94,0000.46,0000.35
2023-01-11 03:39:00,,0816.3,5.00,0.00,22.0,20.5,00.0,31.0,23.7,12.8,0000.0,0000.88,0000.44,0000.35
2023-01-11 03:40:00,,0816.3,5.00,0.00,22.0,20.5,00.0,30.9,23.7,12.8,0000.0,0000.88,0000.43,0000.34
2023-01-11 03:41:00,,0816.4,5.01,0.00,22.0,20.6,00.0,30.9,23.7,13.1,0000.0,0000.87,0000.43,0000.34
2023-01-11 03:42:00,,0816.4,5.01,0.00,22.0,20.7,00.0,30.9,23.7,14.0,0000.0,0000.80,0000.43,0000.35
2023-01-11 03:43:00,,0816.4,5.02,0.00,22.0,20.7,00.0,30.9,23.8,14.1,0000.0,0000.85,0000.43,0000.35
2023-01-11 03:44:00,,0816.4,5.01,0.00,22.0,20.7,00.0,30.9,23.8,14.0,0000.0,0001.91,0000.44,0000.35
2023-01-11 03:45:00,,0816.4,5.02,0.00,22.0,20.7,00.0,30.9,23.8,14.0,0000.0,0001.90,0000.43,0000.35
2023-01-11 03:46:00,,0816.4,5.04,0.00,22.0,20.7,00.0,30.9,23.9,13.7,0000.0,0001.92,0000.43,0000.35
2023-01-11 03:47:00,,0816.4,5.00,0.00,22.0,20.7,00.0,30.9,23.8,13.6,0000.0,0001.91,0000.44,0000.36
2023-01-11 03:48:00,,0816.4,5.00,0.00,22.0,20.7,00.0,30.9,23.8,13.5,0000.0,0001.93,0000.46,0000.37
2023-01-11 03:49:00,,0816.4,5.00,0.00,22.0,20.7,00.0,30.9,23.8,13.5,0000.0,0001.95,0000.48,0000.39
2023-01-11 03:50:00,,0816.5,5.01,0.00,22.0,20.7,00.0,30.9,23.8,13.5,0000.0,0002.02,0000.51,0000.41
2023-01-11 03:51:00,,0816.5,5.01,0.00,22.0,20.7,00.0,30.9,23.8,13.5,0000.0,0002.12,0000.53,0000.43
2023-01-11 03:52:00,,0816.5,4.99,0.00,22.0,20.7,00.0,30.9,23.9,13.5,0000.0,0002.19,0000.55,0000.45
2023-01-11 03:53:00,,0816.5,5.00,0.00,22.0,20.7,00.0,30.9,23.9,13.7,0000.0,0002.25,0000.59,0000.46
2023-01-11 03:54:00,,0816.5,4.99,0.00,22.0,20.8,00.0,30.9,23.9,14.4,0000.0,0002.10,0000.64,0000.48
2023-01-11 03:55:00,,0816.5,4.99,0.00,22.0,20.8,00.0,30.9,23.8,14.3,0000.0,0001.12,0000.65,0000.49
2023-01-11 03:56:00,,0816.5,4.99,0.00,22.0,20.8,00.0,30.9,23.8,14.0,0000.0,0001.15,0000.67,0000.50
2023-01-11 03:57:00,,0816.5,5.00,0.00,22.1,20.9,00.0,30.9,23.9,13.8,0000.0,0001.14,0000.68,0000.51
2023-01-11 03:58:00,,0816.6,5.01,0.00,22.1,20.9,00.0,30.9,23.9,13.8,0000.0,0001.14,0000.68,0000.52
2023-01-11 03:59:00,,0816.5,5.00,0.00,22.1,21.0,00.0,30.9,23.9,13.7,0000.0,0001.10,0000.66,0000.51
